Wind_Speed
20 20 20 20 20 19 19 20 20 20 20 21 20 19 19 19 20 21 21 21 22 22 23 23 23 23 23 24 24 25 25 25 26 26 26 26 26 27
20 20 20 20 19 19 19 19 20 20 20 20 20 19 19 19 19 20 20 21 21 21 22 22 22 23 23 24 25 25 26 26 27 27 27 28 27 27
18 19 19 19 19 19 19 19 19 19 18 19 19 19 18 18 17 18 18 18 20 20 20 21 22 22 24 24 25 26 26 26 27 28 28 28 28 28
18 19 20 20 19 19 19 18 18 18 18 18 18 18 18 18 18 18 19 19 20 21 21 22 22 23 24 24 25 26 27 27 27 28 28 29 29 29
17 18 18 19 18 18 18 17 17 17 17 18 18 18 18 19 20 20 20 21 22 22 22 22 23 23 24 24 25 26 26 26 26 27 28 29 29 29
16 16 16 17 17 17 17 16 16 17 17 18 18 19 19 20 21 21 21 21 21 22 23 23 23 24 24 25 25 26 26 26 27 27 28 29 29 29
15 15 15 15 16 16 16 16 16 17 17 18 18 18 19 20 21 21 21 22 22 22 23 23 23 23 23 24 25 26 26 27 27 27 28 29 28 29
15 16 16 15 15 15 15 15 15 16 16 17 18 19 19 20 20 21 21 22 22 22 22 22 23 23 23 23 24 25 25 26 27 27 28 28 28 28
15 15 15 15 15 15 15 14 15 16 17 18 18 19 19 19 20 20 20 21 21 21 22 21 22 22 23 24 24 25 25 26 27 27 27 28 28 28
15 14 14 15 15 15 14 15 16 16 16 16 17 17 18 18 19 19 20 21 21 21 22 22 22 22 23 24 24 24 24 25 26 27 27 27 28 28
13 13 13 13 14 14 14 15 15 15 15 16 16 16 16 16 18 19 20 21 21 21 22 22 22 23 23 23 22 22 23 24 25 26 26 26 26 26
12 12 12 12 13 13 14 14 14 15 15 15 16 16 16 18 19 20 20 21 21 21 21 21 22 22 22 22 22 22 23 24 25 25 25 26 26 26
12 12 11 11 12 13 14 14 14 15 16 16 17 17 17 18 19 19 20 21 21 21 21 22 22 23 23 23 23 23 24 25 25 25 25 26 27 27
14 14 13 12 13 13 14 15 15 15 15 16 17 17 18 18 18 19 19 20 20 20 21 22 23 23 23 23 23 23 24 25 25 25 25 27 27 27
15 14 14 14 14 15 15 15 15 15 15 16 17 17 18 19 19 19 20 21 21 21 22 23 23 23 23 23 23 24 24 25 26 26 27 27 28 28
14 15 16 15 15 15 15 16 16 16 16 16 17 17 18 19 20 20 21 21 21 21 22 23 23 24 24 24 24 24 25 25 26 27 27 28 28 28
16 17 17 16 15 16 16 16 16 17 17 17 18 18 19 20 20 21 21 21 21 22 22 23 24 24 24 25 25 26 26 26 27 27 27 27 28 28
18 18 18 17 17 17 17 17 18 18 18 19 19 19 20 20 21 21 21 21 22 22 23 24 24 24 24 25 26 26 26 26 26 27 27 28 28 28
18 19 18 19 19 19 19 19 19 19 19 19 20 20 21 21 21 21 21 21 22 22 23 24 24 24 24 25 25 26 26 26 27 27 27 27 27 28
20 20 20 20 20 19 20 20 19 19 19 20 20 21 22 22 23 22 22 22 22 23 24 24 24 25 25 25 26 27 27 27 27 27 27 27 27 28
20 20 20 20 20 20 20 20 20 20 21 21 21 22 23 23 23 23 23 23 24 24 25 25 26 26 26 26 27 28 28 28 28 28 28 28 27 27
21 20 20 20 20 21 21 21 22 22 22 23 23 24 24 24 23 23 24 24 25 26 26 26 26 26 27 27 28 29 28 28 28 28 28 27 27 26
21 21 22 22 22 22 22 22 23 23 24 25 25 25 24 24 24 25 25 26 27 27 27 27 28 28 28 29 30 30 28 27 26 26 27 26 26 25
Wind_Direction
265 264 263 263 264 264 267 267 268 270 272 273 276 278 277 275 277 277 278 277 276 275 273 274 273 273 274 275 276 277 278 279 279 279 279 281 279 276
264 262 262 262 263 264 266 267 270 271 273 275 277 279 278 279 279 280 278 277 277 275 274 274 275 274 275 275 275 276 277 279 279 280 280 281 280 279
265 263 263 263 265 266 267 268 270 272 273 274 277 277 278 281 279 280 279 280 279 278 275 275 275 276 277 278 276 276 277 278 279 279 281 281 281 280
266 265 264 262 264 265 266 268 270 271 272 274 277 278 280 279 281 281 281 280 282 283 279 278 278 278 277 279 278 277 278 279 279 279 279 279 280 280
266 266 263 261 263 264 266 268 271 271 272 274 275 278 281 281 281 282 283 283 284 284 283 281 281 280 280 281 281 279 279 281 281 281 280 281 280 280
268 267 264 263 262 264 267 269 271 272 274 276 277 280 280 281 282 281 281 283 285 285 284 285 283 282 281 282 282 281 281 281 282 282 283 283 283 283
267 265 264 262 260 263 266 269 271 273 273 275 278 281 281 281 281 281 282 281 283 286 285 284 285 285 283 284 284 283 283 283 283 284 284 284 283 285
266 264 262 262 260 263 265 270 272 274 273 274 277 280 280 280 280 281 283 283 284 285 286 286 286 287 287 286 287 286 285 285 285 287 288 287 287 286
264 264 261 259 260 262 262 267 273 276 278 280 281 282 280 280 280 282 284 287 287 287 288 288 289 290 291 290 290 289 288 289 290 290 290 290 289 288
265 260 260 260 262 262 262 266 271 275 279 281 283 283 282 283 284 285 287 288 288 288 289 288 289 291 293 292 291 290 290 291 291 291 291 290 289 287
271 266 263 263 262 262 263 266 271 276 279 284 287 288 288 289 288 288 289 290 289 290 291 290 290 291 293 294 293 293 292 292 292 292 292 291 289 288
274 272 268 268 268 267 268 272 276 280 283 286 288 289 288 289 290 289 290 293 293 292 292 292 291 292 293 294 294 295 296 296 295 294 293 293 292 291
276 278 277 274 270 268 268 271 276 280 285 286 287 287 287 288 288 288 289 292 294 295 295 294 293 293 294 295 294 294 296 297 296 295 294 294 294 294
274 276 274 273 273 273 271 273 277 281 285 288 289 288 288 290 290 289 289 292 294 295 296 295 295 294 294 295 294 295 297 298 297 296 295 295 295 294
273 275 275 276 277 278 278 278 279 282 285 289 292 293 293 292 292 292 292 294 294 295 294 296 297 297 297 296 296 296 298 298 297 296 296 296 294 294
272 273 275 279 280 280 278 279 281 285 287 290 292 294 296 296 295 295 295 295 296 296 296 297 297 298 299 297 297 297 297 298 298 296 296 296 297 295
273 272 275 279 282 281 280 280 282 286 289 290 293 294 295 295 295 296 296 296 296 296 297 298 298 298 298 299 299 299 299 300 300 299 298 298 297 296
272 274 277 279 282 283 283 282 283 285 288 291 293 294 295 295 295 296 295 295 296 297 298 300 300 299 299 301 301 301 301 301 301 301 300 299 297 296
273 276 278 280 282 283 282 283 284 285 287 290 292 293 293 294 295 295 296 296 296 296 297 299 300 299 298 299 301 301 301 302 302 302 302 301 300 298
274 277 280 281 281 280 281 283 285 286 288 290 292 293 294 294 295 295 295 294 295 295 296 298 300 300 302 302 302 302 301 301 301 301 302 301 300 300
276 279 279 278 278 280 282 284 285 286 289 291 293 294 295 294 293 293 294 294 295 296 297 298 300 301 302 302 303 303 303 302 302 302 302 301 301 301
277 278 279 278 278 280 281 283 285 287 289 291 293 294 294 292 291 292 293 294 295 296 298 299 299 299 300 301 302 304 304 303 303 303 303 303 302 302
274 276 277 277 278 279 281 283 285 287 288 290 291 293 292 291 291 292 293 293 295 296 297 298 298 299 299 300 302 303 303 303 303 302 303 303 303 302
Height
5803 5804 5805 5806 5807 5808 5809 5810 5812 5813 5814 5814 5815 5815 5815 5815 5816 5816 5816 5816 5817 5817 5817 5817 5817 5817 5817 5817 5816 5816 5816 5815 5815 5814 5813 5813 5812 5811
5797 5798 5799 5800 5801 5803 5804 5805 5806 5807 5808 5808 5809 5809 5810 5810 5811 5811 5811 5811 5811 5811 5811 5811 5811 5811 5810 5810 5810 5809 5809 5808 5808 5807 5806 5805 5804 5803
5791 5792 5793 5795 5796 5798 5799 5800 5801 5802 5803 5803 5803 5804 5805 5805 5805 5805 5805 5805 5805 5805 5805 5805 5805 5804 5804 5803 5802 5802 5801 5801 5800 5799 5798 5797 5796 5795
5786 5787 5788 5790 5791 5792 5793 5794 5796 5797 5798 5798 5799 5799 5800 5800 5800 5800 5800 5800 5800 5800 5800 5799 5799 5798 5797 5796 5795 5795 5794 5793 5792 5791 5790 5789 5788 5787
5781 5782 5783 5784 5786 5787 5788 5790 5790 5792 5793 5793 5794 5794 5794 5795 5795 5795 5795 5794 5794 5794 5794 5793 5792 5791 5790 5789 5788 5787 5786 5785 5784 5783 5782 5781 5779 5778
5776 5777 5778 5780 5781 5783 5784 5785 5786 5787 5787 5788 5789 5789 5789 5789 5789 5790 5790 5789 5788 5788 5787 5786 5785 5784 5783 5782 5781 5780 5778 5777 5776 5775 5774 5772 5771 5770
5772 5773 5774 5775 5777 5778 5780 5780 5781 5782 5782 5783 5784 5784 5784 5784 5784 5783 5784 5783 5782 5781 5781 5780 5779 5778 5777 5775 5774 5772 5771 5770 5768 5767 5765 5764 5763 5761
5769 5769 5770 5771 5773 5774 5775 5776 5776 5777 5777 5778 5778 5778 5778 5778 5778 5777 5777 5777 5777 5776 5774 5773 5772 5771 5770 5769 5767 5765 5764 5762 5761 5759 5758 5756 5755 5753
5765 5765 5766 5767 5768 5769 5770 5771 5772 5772 5772 5773 5773 5773 5773 5772 5772 5772 5771 5770 5769 5768 5768 5767 5765 5765 5764 5762 5760 5758 5757 5755 5753 5751 5750 5748 5747 5745
5761 5761 5762 5763 5764 5765 5766 5767 5767 5767 5767 5767 5768 5767 5767 5766 5766 5766 5765 5764 5763 5762 5761 5761 5759 5758 5757 5755 5753 5751 5749 5747 5746 5744 5742 5740 5739 5737
5758 5758 5759 5759 5760 5761 5762 5762 5763 5763 5763 5763 5763 5762 5762 5761 5761 5760 5760 5759 5758 5757 5755 5755 5753 5752 5751 5749 5747 5745 5743 5741 5739 5737 5735 5733 5731 5729
5754 5755 5755 5756 5757 5757 5758 5758 5758 5758 5758 5758 5758 5758 5757 5756 5756 5755 5754 5753 5752 5751 5750 5749 5747 5746 5745 5743 5740 5738 5736 5734 5731 5729 5727 5725 5723 5721
5751 5752 5752 5753 5753 5753 5754 5754 5754 5754 5754 5754 5754 5753 5753 5752 5751 5750 5749 5748 5747 5745 5744 5742 5741 5739 5738 5736 5734 5731 5729 5727 5724 5722 5719 5717 5715 5712
5748 5748 5749 5749 5749 5749 5750 5750 5750 5750 5750 5750 5749 5749 5748 5747 5746 5745 5744 5742 5741 5739 5738 5736 5734 5733 5731 5729 5727 5725 5723 5720 5717 5714 5712 5709 5707 5704
5744 5745 5745 5745 5745 5745 5746 5746 5746 5746 5746 5745 5745 5744 5743 5742 5741 5740 5738 5737 5735 5733 5732 5730 5728 5726 5724 5722 5720 5718 5715 5713 5710 5707 5704 5701 5699 5696
5741 5741 5741 5741 5741 5741 5741 5742 5742 5742 5741 5741 5740 5739 5738 5737 5736 5735 5733 5731 5730 5728 5726 5724 5721 5719 5717 5715 5713 5710 5708 5705 5702 5699 5696 5693 5690 5688
5737 5737 5737 5737 5737 5737 5737 5737 5737 5737 5736 5736 5735 5734 5733 5731 5730 5729 5727 5725 5724 5722 5720 5718 5715 5713 5710 5708 5706 5703 5700 5697 5694 5691 5688 5685 5682 5680
5732 5733 5733 5733 5733 5732 5732 5732 5732 5732 5731 5730 5729 5728 5727 5725 5724 5722 5721 5719 5718 5716 5714 5712 5709 5707 5704 5702 5699 5696 5692 5689 5686 5683 5680 5677 5675 5672
5727 5727 5728 5728 5728 5728 5727 5727 5727 5726 5726 5725 5724 5723 5721 5720 5718 5717 5715 5713 5711 5709 5707 5705 5703 5700 5697 5695 5692 5688 5685 5682 5678 5676 5672 5669 5667 5664
5722 5722 5722 5723 5722 5722 5722 5722 5721 5721 5720 5719 5718 5717 5715 5714 5712 5710 5708 5707 5705 5703 5700 5698 5695 5692 5690 5688 5684 5681 5677 5674 5671 5668 5665 5661 5658 5655
5716 5717 5717 5717 5717 5716 5716 5716 5715 5714 5714 5713 5711 5710 5709 5707 5705 5704 5702 5700 5698 5695 5693 5691 5688 5685 5682 5679 5677 5673 5670 5666 5663 5660 5657 5653 5650 5647
5711 5711 5711 5711 5711 5710 5710 5709 5709 5708 5707 5706 5705 5703 5702 5700 5698 5696 5695 5693 5691 5688 5685 5683 5680 5677 5674 5672 5669 5665 5662 5659 5655 5651 5648 5645 5642 5639
5705 5705 5705 5705 5705 5704 5703 5703 5702 5701 5700 5699 5698 5696 5694 5693 5691 5689 5688 5685 5683 5680 5677 5675 5672 5669 5666 5663 5660 5657 5654 5651 5647 5644 5641 5638 5635 5632